Regional Weather Roundup
Issued by NWS Jackson, KY

Home | Current Version | Previous Version | Text Only | Print | Product List | Glossary On
Versions: 1 2 3 4 5 6 7 8 9 10 11 12 13 14 15 16 17 18 19 20 21 22 23 24 25 26 27 28
000
ASUS43 KJKL 200610
RWRJKL

EAST KENTUCKY HOURLY WEATHER ROUNDUP
NATIONAL WEATHER SERVICE JACKSON KY
200 AM EDT WED SEP 20 2017

NOTE: "FAIR" INDICATES FEW OR NO CLOUDS BELOW 12,000 FEET WITH
NO SIGNIFICANT WEATHER AND/OR OBSTRUCTIONS TO VISIBILITY.

* THESE REPORTS ARE NOT UNDER NWS QUALITY CONTROL AND MAY NOT
  REPORT WEATHER SUCH AS PRECIPITATION AND FOG.

KYZ079-080-083-085-087-088-110-112-115-119-120-200700
...EASTERN KENTUCKY...

CITY           SKY/WX    TMP DP  RH WIND       PRES   REMARKS
JACKSON        FOG       67  66  97 CALM      30.01R VSB 1/4
6HR MIN TEMP:  67; 6HR MAX TEMP:  71;

LONDON         CLEAR     65  64  97 CALM      30.01S
6HR MIN TEMP:  65; 6HR MAX TEMP:  73;

SOMERSET*      FOG       64  64 100 CALM      30.02S VSB 1
MONTICELLO*    CLEAR     63  63 100 W10       30.02S FOG
6HR MIN TEMP:  61; 6HR MAX TEMP:  72; 6HR PCP: TRACE;

WILLIAMSBURG*  CLOUDY    64  64 100 CALM      30.02S VSB<1/4
MIDDLESBORO*   PTCLDY    64  63  99 CALM      30.03S
6HR MIN TEMP:  64; 6HR MAX TEMP:  72;

HARLAN APT*    CLOUDY    64  63  94 CALM      30.04R
PIKE CO APT*     N/A     66  66 100 CALM      30.01R
BIG SANDY APT* FOG       65  65 100 CALM      30.01S VSB<1/4
6HR MIN TEMP:  65; 6HR MAX TEMP:  70;

MOREHEAD APT*  FOG       66  66 100 CALM      30.00S VSB<1/4
$$

KYZ035-036-041-042-044-050-067-078-099-200700
...CENTRAL KENTUCKY...

CITY           SKY/WX    TMP DP  RH WIND       PRES   REMARKS
MT STERLING*   CLEAR     64  64 100 SW3       30.01R
FLEMING/MASON* FOG       67  67 100 CALM      30.00S VSB 1/4
DANVILLE*      CLOUDY    64  64 100 CALM      30.01R FOG
LEXINGTON      PTCLDY    67  65  93 CALM      29.99S FOG
6HR MIN TEMP:  67; 6HR MAX TEMP:  73;

FRANKFORT      MOCLDY    64  62  93 CALM      29.97S FOG
6HR MIN TEMP:  64; 6HR MAX TEMP:  72;

LOUISVILLE     CLEAR     69  68  96 SE3       29.96S
6HR MIN TEMP:  69; 6HR MAX TEMP:  75;

LEBANON*         N/A     68  66  94 S3        29.98S
GLASGOW*       FOG      N/A N/A N/A CALM      29.98S VSB 1/2
BOWLING GREEN  CLEAR     68  68 100 CALM      29.97S FOG
6HR MIN TEMP:  67; 6HR MAX TEMP:  78;

$$

KYZ091>093-OHZ055-061-077-WVZ005-015-034-035-042-200700
...SOUTHERN OHIO/WEST VIRGINIA...

CITY           SKY/WX    TMP DP  RH WIND       PRES   REMARKS
COVINGTON      CLEAR     65  65 100 S6        29.98R
COLUMBUS       CLOUDY    70  68  93 CALM      29.97S
DAYTON         PTCLDY    63  62  97 SW5       29.98S
WILMINGTON     FOG       61  61 100 SE3       29.97F VSB 1/2
HUNTINGTON     CLOUDY    67  66  97 CALM      29.98R FOG
CHARLESTON     PTCLDY    66  63  90 CALM      29.98F
PINEVILLE*     PTCLDY    61  60  96 MISG      30.08S FOG
BECKLEY        PTCLDY    62  61  96 CALM      30.06S
BLUEFIELD      PTCLDY    63  58  83 CALM      30.09S
LOGAN CO APT*    N/A     66  64  94 CALM      30.01S
$$

VAZ002-007-008-TNZ017-027-036-066-071-200700
...SOUTHWEST VIRGINIA/EAST TENNESSEE...

CITY           SKY/WX    TMP DP  RH WIND       PRES   REMARKS
WISE*          CLOUDY    64  59  82 CALM      30.09R
JONESVILLE*      N/A     63  63 100 CALM      30.06R
ABINGDON*      CLEAR     64  62  94 CALM      30.07R
BRISTOL        CLOUDY    66  63  90 CALM      30.04R
MORRISTOWN*    CLEAR     64  63  94 CALM      30.02S
SEVIERVILLE*   PTCLDY    63  61  94 CALM      30.02S
KNOXVILLE      PTCLDY    65  62  90 SW3       30.01S
LAFOLLETTE*    FOG       64  64 100 CALM      30.05S VSB 0
OAK RIDGE      CLOUDY    65  63  93 CALM      30.03S
CROSSVILLE     CLEAR     60  60 100 CALM      30.06S
NASHVILLE      CLEAR     68  66  93 SE3       29.98S
$$

...KEY TO REMARKS...
VSB - VISIBILITY IN MILES
WCI - WIND CHILL INDEX
HX  - HEAT INDEX

$$




USA.gov is the U.S. government's official web portal to all federal, state and local government web resources and services.